Weather History for Ironwood, MI

Change the Weather History Date:

Thursday, December 1, 2011

  Actual Average Record
Temperature  
Mean Temperature 24 °F -  
Max Temperature 32 °F 31 °F 51 °F (1998)
Min Temperature 15 °F 19 °F 3 °F (2007)
Degree Days  
Heating Degree Days 42    
Moisture  
Dew Point 21 °F    
Average Humidity 82    
Maximum Humidity 100    
Minimum Humidity 68    
Precipitation  
Precipitation 0.00 in - - ()
Sea Level Pressure  
Sea Level Pressure 30.24 in    
Wind  
Wind Speed 6 mph (NNW)    
Max Wind Speed 10 mph    
Max Gust Speed -    
Visibility 9 miles    
Events      
Averages and records for this station are not official NWS values.
T = Trace of Precipitation, MM = Missing Value Source: NWS Daily Summary

Daily Weather History Graph

Daily Weather History Graph

Search for Another Location

Airport:

Trip Planner

Search our weather history database for the weather conditions in past years. The results will help you decide how hot, cold, wet, or windy it might be!

Date:

Astronomy

Dec. 01, 2011 Rise Set
Actual Time 7:23 AM CST 4:15 PM CST
Civil Twilight 6:49 AM CST 4:49 PM CST
Nautical Twilight 6:11 AM CST 5:27 PM CST
Astronomical Twilight 5:35 AM CST 6:03 PM CST
Moon 11:53 AM CST 11:30 PM CST
Length of Visible Light 10h 00m
Length of Day
8h 51m
Waxing Crescent, 43% of the Moon is Illuminated
Dec 1
Waxing Crescent
Dec 2
First Quarter
Dec 10
Full
Dec 17
Last Quarter
Dec 24
New

Hourly Weather History & Observations

Time (CST) Temp. Windchill Dew Point Humidity Pressure Visibility Wind Dir Wind Speed Gust Speed Precip Events Conditions
12:35 AM 30.2 °F - 30.2 °F 100% 30.06 in 5.0 mi Calm Calm - N/A   Overcast
12:55 AM 30.2 °F - 30.2 °F 100% 30.06 in 7.0 mi Calm Calm - N/A   Overcast
2:15 AM 32.0 °F 26.4 °F 30.2 °F 93% 30.09 in 2.5 mi NNE 5.8 mph - N/A   Overcast
2:35 AM 32.0 °F 26.4 °F 30.2 °F 93% 30.09 in 2.5 mi NNE 5.8 mph - N/A   Overcast
2:55 AM 30.2 °F 24.3 °F 30.2 °F 100% 30.10 in 7.0 mi NNE 5.8 mph - N/A   Overcast
3:15 AM 30.2 °F 21.9 °F 30.2 °F 100% 30.11 in 1.2 mi North 9.2 mph - N/A   Overcast
3:35 AM 30.2 °F 23.4 °F 28.4 °F 93% 30.12 in 1.5 mi North 6.9 mph - N/A   Overcast
3:55 AM 30.2 °F 23.4 °F 30.2 °F 100% 30.12 in 1.8 mi North 6.9 mph - N/A   Overcast
4:35 AM 30.2 °F 23.4 °F 28.4 °F 93% 30.15 in 3.0 mi North 6.9 mph - N/A   Overcast
4:55 AM 30.2 °F 23.4 °F 28.4 °F 93% 30.16 in 4.0 mi North 6.9 mph - N/A   Overcast
5:15 AM 30.2 °F 21.9 °F 28.4 °F 93% 30.17 in 5.0 mi North 9.2 mph - N/A   Overcast
5:35 AM 28.4 °F 23.3 °F 26.6 °F 93% 30.17 in 10.0 mi North 4.6 mph - N/A   Overcast
5:55 AM 30.2 °F 22.6 °F 26.6 °F 86% 30.18 in 10.0 mi North 8.1 mph - N/A   Overcast
6:15 AM 28.4 °F 22.2 °F 26.6 °F 93% 30.19 in 10.0 mi North 5.8 mph - N/A   Overcast
6:35 AM 28.4 °F - 26.6 °F 93% 30.20 in 10.0 mi North - - N/A   Overcast
6:55 AM 28.4 °F 22.2 °F 26.6 °F 93% 30.21 in 10.0 mi North 5.8 mph - N/A   Overcast
7:15 AM 28.4 °F 22.2 °F 26.6 °F 93% 30.22 in 10.0 mi NNW 5.8 mph - N/A   Overcast
7:35 AM 28.4 °F 21.2 °F 24.8 °F 86% 30.23 in 10.0 mi NNW 6.9 mph - N/A   Overcast
7:56 AM 28.4 °F 21.2 °F 24.8 °F 86% 30.24 in 10.0 mi North 6.9 mph - N/A   Overcast
8:35 AM 28.4 °F 20.4 °F 24.8 °F 86% 30.25 in 10.0 mi North 8.1 mph - N/A   Overcast
9:15 AM 28.4 °F 19.1 °F 23.0 °F 80% 30.27 in 10.0 mi North 10.4 mph - N/A   Overcast
9:35 AM 28.4 °F 21.2 °F 24.8 °F 86% 30.28 in 10.0 mi North 6.9 mph - N/A   Overcast
10:15 AM 28.4 °F 21.2 °F 21.2 °F 74% 30.30 in 10.0 mi North 6.9 mph - N/A   Overcast
10:35 AM 26.6 °F 17.5 °F 19.4 °F 74% 30.30 in 10.0 mi North 9.2 mph - N/A   Overcast
11:15 AM 26.6 °F 16.8 °F 17.6 °F 69% 30.30 in 10.0 mi North 10.4 mph - N/A   Overcast
11:35 AM 26.6 °F - 17.6 °F 69% 30.30 in 10.0 mi North - - N/A   Overcast
11:55 AM 26.6 °F 17.5 °F 17.6 °F 69% 30.31 in 10.0 mi North 9.2 mph - N/A   Overcast
12:15 PM 26.6 °F 17.5 °F 17.6 °F 69% 30.31 in 10.0 mi North 9.2 mph - N/A   Overcast
12:35 PM 26.6 °F 19.1 °F 17.6 °F 69% 30.30 in 10.0 mi North 6.9 mph - N/A   Overcast
1:15 PM 26.6 °F 18.2 °F 17.6 °F 69% 30.30 in 10.0 mi North 8.1 mph - N/A   Overcast
1:35 PM 26.6 °F 16.8 °F 17.6 °F 69% 30.30 in 10.0 mi NW 10.4 mph - N/A   Overcast
2:15 PM 24.8 °F 15.3 °F 19.4 °F 80% 30.30 in 10.0 mi NW 9.2 mph - N/A   Overcast
2:35 PM 24.8 °F 14.6 °F 17.6 °F 74% 30.31 in 10.0 mi NW 10.4 mph - N/A   Overcast
2:55 PM 24.8 °F 15.3 °F 17.6 °F 74% 30.31 in 10.0 mi NW 9.2 mph - N/A   Overcast
3:35 PM 23.0 °F 13.1 °F 14.0 °F 68% 30.32 in 10.0 mi NW 9.2 mph - N/A   Overcast
4:15 PM 21.2 °F 10.9 °F 12.2 °F 68% 30.33 in 10.0 mi NW 9.2 mph - N/A   Mostly Cloudy
4:35 PM 21.2 °F 13.6 °F 12.2 °F 68% 30.32 in 10.0 mi NW 5.8 mph - N/A   Scattered Clouds
5:15 PM 19.4 °F - 12.2 °F 74% 30.33 in 10.0 mi Calm Calm - N/A   Clear
5:35 PM 19.4 °F - 14.0 °F 80% 30.32 in 10.0 mi Calm Calm - N/A   Scattered Clouds
5:55 PM 15.8 °F - 10.4 °F 79% 30.32 in 10.0 mi Calm Calm - N/A   Overcast
6:15 PM 17.6 °F - 15.8 °F 93% 30.32 in 10.0 mi Calm Calm - N/A   Overcast
6:35 PM 19.4 °F 14.3 °F 12.2 °F 74% 30.32 in 10.0 mi SW 3.5 mph - N/A   Overcast
6:55 PM 19.4 °F 10.4 °F 14.0 °F 80% 30.32 in 10.0 mi WSW 6.9 mph - N/A   Overcast
7:15 PM 19.4 °F 10.4 °F 15.8 °F 86% 30.31 in 10.0 mi WSW 6.9 mph - N/A   Overcast
8:15 PM 19.4 °F 11.5 °F 12.2 °F 74% 30.30 in 10.0 mi West 5.8 mph - N/A   Overcast
8:35 PM 19.4 °F 10.4 °F 12.2 °F 74% 30.30 in 10.0 mi WSW 6.9 mph - N/A   Overcast
8:55 PM 19.4 °F 9.5 °F 12.2 °F 74% 30.30 in 10.0 mi WSW 8.1 mph - N/A   Overcast
9:15 PM 19.4 °F 9.5 °F 12.2 °F 74% 30.30 in 10.0 mi West 8.1 mph - N/A   Overcast
9:35 PM 17.6 °F 8.2 °F 12.2 °F 79% 30.30 in 10.0 mi WSW 6.9 mph - N/A   Overcast
9:55 PM 17.6 °F 9.3 °F 12.2 °F 79% 30.30 in 10.0 mi WSW 5.8 mph - N/A   Overcast
10:15 PM 15.8 °F 7.2 °F 10.4 °F 79% 30.30 in 10.0 mi WSW 5.8 mph - N/A   Overcast
10:35 PM 15.8 °F 6.1 °F 12.2 °F 86% 30.30 in 10.0 mi SW 6.9 mph - N/A   Overcast
11:15 PM 12.2 °F 1.7 °F 6.8 °F 79% 30.31 in 10.0 mi WSW 6.9 mph - N/A   Partly Cloudy
11:55 PM 10.4 °F 2.2 °F 6.8 °F 85% 30.30 in 10.0 mi WSW 4.6 mph - N/A   Partly Cloudy